User: anonymous
Location: Iola
(37.9240°N, 95.4000°W)
Time: 11:16:06
(UTC-05:00)
Language:

Meteor 2-10 Rocket - Orbit

View from above orbital plane
View from above orbital plane
View from above satellite
View from above satellite

Ground track
Ground track

The orbit data is extracted from the following two-line orbital elements,

1 14453U 83109B   14273.47237029  .00000156  00000-0  57825-4 0  2456
2 14453 081.1700 022.8704 0105606 050.0616 003.8312 14.24517570606471
Epoch (UTC): 30 September 2014 11:20:12
Eccentricity: 0.0105606
inclination: 81.1700°
perigee height: 734 km
apogee height: 886 km
right ascension of ascending node: 22.8704°
argument of perigee: 50.0616°
revolutions per day: 14.24517570
mean anomaly at epoch: 3.8312°
orbit number at epoch: 60647

The dashed part of the orbit path shows where the satellite is in the earth's shadow,  

DLR